Regional Weather Roundup
Issued by NWS Jackson, KY

Home | Current Version | Previous Version | Text Only | Print | Product List | Glossary On
Versions: 1 2 3 4 5 6 7 8 9 10 11 12 13 14 15 16 17 18 19 20 21 22 23 24 25 26 27 28 29 30 31 32 33 34 35 36 37 38 39 40 41 42 43 44 45 46 47 48 49 50
000
ASUS43 KJKL 240911
RWRJKL

EAST KENTUCKY HOURLY WEATHER ROUNDUP
NATIONAL WEATHER SERVICE JACKSON KY
500 AM EDT THU JUL 24 2014

NOTE: "FAIR" INDICATES FEW OR NO CLOUDS BELOW 12,000 FEET WITH
NO SIGNIFICANT WEATHER AND/OR OBSTRUCTIONS TO VISIBILITY.

* THESE REPORTS ARE NOT UNDER NWS QUALITY CONTROL AND MAY NOT
  REPORT WEATHER SUCH AS PRECIPITATION AND FOG.

KYZ079-080-083-085-087-088-110-112-115-119-120-241000
...EASTERN KENTUCKY...

CITY           SKY/WX    TMP DP  RH WIND       PRES   REMARKS
JACKSON        FOG       68  67  96 CALM      29.96S VSB 1/4
LONDON         FOG       69  67  93 CALM      29.96F VSB 1/2
SOMERSET*      CLOUDY    70  70 100 CALM      29.97R FOG
MONTICELLO*    CLOUDY    70  70 100 CALM      29.98R FOG
WILLIAMSBURG*  CLOUDY    66  66 100 CALM      29.97S
MIDDLESBORO*   CLOUDY    67  67 100 CALM      29.97S FOG
HARLAN APT*    CLOUDY    66  66 100 MISG      29.98S VSB<1/4
HAZARD APT*    FOG       68  68 100 CALM      29.96S VSB 1/2
BLACK MTN*       N/A     63  63 100 S3          N/A
PIKEVILLE APT* FOG       66  66 100 CALM      29.97R VSB 0
BIG SANDY*     CLOUDY    68  68 100 CALM      29.95F FOG
MOREHEAD APT*  FOG       70  70 100 CALM      29.97S VSB 1/4
$$

KYZ035-036-041-042-044-050-067-078-099-241000
...CENTRAL KENTUCKY...

CITY           SKY/WX    TMP DP  RH WIND       PRES   REMARKS
MT STERLING*   CLOUDY    68  68 100 N5        29.97S FOG
FLEMING/MASON* LGT RAIN  63  61  94 NE10      29.98R
DANVILLE*      CLOUDY    70  70 100 N3        29.96S FOG
RICHMOND*      CLOUDY    70  66  88 SW5       29.94F
LEXINGTON      CLOUDY    71  67  87 N12       29.96R
FRANKFORT      CLOUDY    68  65  90 N9        29.96R
$$

KYZ091>093-OHZ055-061-077-WVZ005-015-034-035-042-241000
...SOUTHERN OHIO/WEST VIRGINIA...

CITY           SKY/WX    TMP DP  RH WIND       PRES   REMARKS
COVINGTON      MOCLDY    65  54  67 NE12      30.00R
COLUMBUS       CLEAR     60  54  80 N6        30.02S
DAYTON         PTCLDY    59  56  89 N7        30.05S
WILMINGTON     CLOUDY    61  55  81 NE12      30.01F
HUNTINGTON     CLOUDY    69  64  84 N9        29.94R
CHARLESTON     CLOUDY    70  70 100 CALM      29.93S FOG
PINEVILLE*     CLOUDY    71  71 100 MISG      30.02R FOG
BECKLEY        CLOUDY    67  65  93 CALM      30.00S
BLUEFIELD      CLOUDY    69  65  86 SW6       30.02S FOG
$$

VAZ002-007-008-TNZ017-027-036-066-071-241000
...SOUTHWEST VIRGINIA/EAST TENNESSEE...

CITY           SKY/WX    TMP DP  RH WIND       PRES   REMARKS
WISE*          MOCLDY    64  64 100 CALM      30.03S
JONESVILLE*    FOG       68  68 100 CALM      29.99F VSB 1/4
ABINGDON*      CLOUDY    70  69  99 CALM      30.00R FOG
BRISTOL        CLOUDY    70  67  90 CALM      29.97S
KNOXVILLE      MOCLDY    72  69  90 W6        29.94S
OAK RIDGE      CLOUDY    71  69  93 CALM      29.96F
CROSSVILLE     CLOUDY    69  66  90 SW5       30.00F FOG
NASHVILLE      MOCLDY    73  70  88 N7        29.95F
$$

...KEY TO REMARKS...
VSB - VISIBILITY IN MILES
WCI - WIND CHILL INDEX
HX  - HEAT INDEX

$$


USA.gov is the U.S. government's official web portal to all federal, state and local government web resources and services.